Location: Biharia
(46.4333°N, 22.8000°E)
Time: 10:33:00
(UTC+00:00)

Cosmos 489 Rocket - Pass Details

Date: 16 October 2021
Orbit: 953 x 983 km, 74.0° (Epoch: 02 December)

Event Time Altitude Azimuth Distance (km) Brightness Sun altitude
Rises 17:14:56 0° 339° (NNW) 3,642 7.9 -17.1°
Reaches altitude 10° 17:17:29 10° 341° (NNW) 2,691 7.1 -17.5°
Maximum altitude 17:23:42 74° 66° (ENE) 992 4.4 -18.6°
Enters shadow 17:29:10 14° 151° (SSE) 2,408 6.2 -19.5°
